Location: Molandier
(43.2457°N, 1.7156°E)
Time: 11:53:35
(UTC+00:00)

Daily predictions for brighter satellites

Satellite Brightness Start Highest point End
(mag) Time Altitude Azimuth Time Altitude Azimuth Time Altitude Azimuth
SL-16 R/B 2.4 19:42:20 10° SSW 19:48:00 82° WNW 19:53:43 10° NNE
Meteor 1-26 Rocket 4.4 19:43:05 10° S 19:49:03 68° E 19:55:02 10° NNE
CSL-04 Debris 4.3 19:44:55 10° SSE 19:50:23 89° W 19:55:53 10° NNW
SPOT 5 3.8 19:48:46 10° SE 19:52:37 28° ENE 19:56:21 10° N
Cosmos 2369 Rocket 2.5 19:51:10 10° NNW 19:56:41 56° ENE 20:02:10 10° SE
Cosmos 1656 Rocket 3.7 19:51:35 10° NNW 19:57:04 73° ENE 20:02:34 10° SSE
Cosmos 44 3.5 19:54:31 10° NW 19:59:16 66° WSW 20:03:42 10° SSE
Cosmos 2034 Rocket 4.1 19:58:52 10° N 20:05:09 89° ENE 20:11:27 10° S
Cosmos 2084 3.5 20:02:28 10° NW 20:06:11 61° SW 20:09:55 10° SSE
USA 229 DEB 4.2 20:00:52 10° NNW 20:08:20 71° NE 20:16:16 11° SE
USA 229 4.2 20:00:57 10° NNW 20:08:26 71° NE 20:16:22 11° SE
Cosmos 1371 Rocket 4.2 20:03:20 10° NNW 20:08:42 78° WSW 20:14:02 10° SSE
MOS 1 4.5 20:05:07 10° SSE 20:10:40 61° ENE 20:16:16 10° N
Cosmos 1378 4.3 20:11:53 10° SSW 20:14:58 38° WNW 20:18:04 10° N
Cosmos 1536 4.4 20:12:32 10° NNE 20:15:23 19° ENE 20:17:51 12° ESE
SeaSat 1 3.6 20:11:27 10° S 20:16:00 39° WSW 20:20:37 10° NW
Cosmos 1726 3.1 20:17:10 10° NNE 20:19:43 22° ENE 20:21:30 14° ESE
USA 306 3.9 20:17:28 10° NW 20:20:57 34° NNE 20:24:32 10° E
USA 59 Rocket 2.3 20:19:55 10° N 20:21:56 13° NE 20:24:11 10° ENE
Tsikada Rocket 4.0 20:16:08 10° S 20:22:20 87° E 20:28:38 10° N
Cosmos 1943 3.2 20:19:22 10° S 20:24:58 63° ESE 20:30:35 10° NNE
IRS-1C Rocket 4.3 20:21:18 11° SSE 20:26:15 58° ENE 20:31:25 10° N
Cosmos 1842 Rocket 3.8 20:22:30 10° SSE 20:26:47 49° E 20:31:02 10° NNE
USA 276 2.3 20:26:19 10° WNW 20:28:19 33° SW 20:29:24 20° SSE
Spot 2 Rocket 4.4 20:25:05 13° SE 20:28:54 33° ENE 20:33:24 10° N
Resurs 01 Rocket 3.1 20:25:17 10° SSW 20:29:20 34° W 20:33:23 10° NNW
Okean 3 Rocket 3.8 20:25:26 10° N 20:29:42 50° ENE 20:33:10 15° SSE
IRS-1A Rocket 4.4 20:24:47 12° SSE 20:29:58 59° ENE 20:35:24 10° N
ARGOS Delta rocket 4.4 20:27:17 13° SE 20:31:24 45° ENE 20:35:57 10° N
ISS -3.5 20:28:06 10° NW 20:31:27 64° NNE 20:33:56 17° ESE
Okean O Rocket 3.2 20:35:36 10° SSW 20:39:34 32° W 20:43:34 10° NNW
SPOT 3 Rocket 4.3 20:36:08 16° SE 20:39:44 36° ENE 20:44:25 10° N
CZ-4 R/B 4.4 20:39:43 10° W 20:40:20 10° W 20:40:55 10° W
Cosmos 1340 4.5 20:39:03 10° NE 20:40:56 14° ENE 20:42:01 13° E
Sich 1 4.4 20:39:08 10° NNE 20:42:46 25° ENE 20:44:55 17° ESE
Cosmos 2221 3.7 20:39:12 10° SSW 20:43:18 43° WNW 20:47:27 10° N
Meteor 1-27 Rocket 4.4 20:40:55 16° SSE 20:44:38 35° E 20:49:37 10° NNE
USA 281 4.1 20:43:30 14° ESE 20:48:33 36° NE 20:54:26 10° N
ATLAS 3B R/B 4.2 20:43:04 10° NW 20:49:54 34° WSW 20:56:35 10° S
Ariane Rocket 3.3 20:48:21 19° SE 20:51:45 51° ENE 20:56:40 10° N
MetOp-B 4.3 20:46:53 12° S 20:51:48 77° WSW 20:57:11 10° NNW
Cosmos 1766 Rocket 4.4 20:48:26 10° NNW 20:52:45 49° W 20:57:02 10° SSW
GEOS 3 Rocket 4.2 20:55:25 10° NE 21:00:06 34° ESE 21:03:30 17° S
Terra 1.8 20:59:36 22° SSE 21:02:39 75° ENE 21:07:22 10° N
Cosmos 1340 Rocket 3.4 21:03:13 28° SE 21:04:35 37° E 21:08:16 10° NNE
MOS 1 Rocket 3.8 21:02:03 23° SE 21:05:07 57° ENE 21:10:21 10° N
Cosmos 1452 Rocket 3.5 21:02:50 10° NNW 21:08:06 81° WSW 21:11:27 23° SSE
Cosmos 1743 Rocket 4.1 21:04:55 10° N 21:09:08 42° ENE 21:10:55 28° SE
Lacrosse 5 rocket 4.4 21:10:02 10° NW 21:12:04 13° N 21:14:05 10° NNE
Helios 1B 4.4 21:10:27 10° NNE 21:14:46 80° ESE 21:17:40 21° S
ERS-1 Rocket 3.1 21:12:27 20° S 21:15:55 70° WSW 21:20:58 10° NNW
Cosmos 1408 Rocket 3.6 21:14:28 10° N 21:18:55 83° W 21:21:17 27° S
Meteor 2-10 4.1 21:15:58 10° N 21:21:28 72° ENE 21:24:13 29° SSE
USA 245 3.2 21:22:29 33° WSW 21:22:36 34° W 21:24:45 10° NNW
Cosmos 1626 4.1 21:24:36 13° ENE 21:24:36 13° ENE 21:25:26 10° NE
Nadezhda 4 Rocket 4.0 21:21:16 23° S 21:25:16 67° E 21:31:28 10° NNE
Cosmos 2279 Rocket 4.3 21:20:03 10° NNW 21:26:09 64° W 21:30:55 17° S
Spot 1 3.9 21:22:21 10° NNE 21:26:26 63° ESE 21:28:04 35° S
Cosmos 614 Rocket 4.2 21:25:40 30° SSE 21:27:48 48° ESE 21:32:48 10° NNE
SPOT 5 4.3 21:26:54 11° SSW 21:30:34 29° W 21:34:25 10° NW
Meteor 1-19 Rocket 4.3 21:28:37 19° S 21:33:03 89° E 21:38:49 10° N
Cosmos 1603 4.3 21:29:23 10° SW 21:34:58 58° WNW 21:40:37 10° NNE
Cosmos 1833 Rocket 4.2 21:35:26 18° E 21:35:26 18° E 21:39:03 10° ENE
Okean 1 3.9 21:33:59 22° SSW 21:36:16 53° W 21:40:05 10° N
Cosmos 1151 Rocket 2.9 21:37:10 41° SSE 21:38:34 70° E 21:42:54 10° NNE
Cosmos 2369 Rocket 4.1 21:36:06 10° NW 21:40:13 21° W 21:44:21 10° SSW
Cosmos 1975 3.4 21:39:01 10° N 21:42:44 38° ENE 21:43:09 37° E
Meteor 1-11 Rocket 4.2 21:38:30 10° NNW 21:44:03 56° W 21:47:34 23° SSW
Cosmos 1328 Rocket 4.3 21:45:12 33° E 21:45:27 33° E 21:49:19 10° NNE
Meteor 2-17 Rocket 4.4 21:41:44 23° S 21:45:39 87° W 21:51:45 10° N
FALCON 9 R/B 4.1 21:41:01 10° WSW 21:47:08 42° S 21:58:41 20° SE
Cosmos 1302 Rocket 3.9 21:45:37 10° NNW 21:50:50 83° WSW 21:52:42 41° SSE
Cosmos 1536 4.3 21:47:57 10° NNW 21:51:24 30° W 21:53:08 21° SW
Cosmos 1992 Rocket 4.4 21:46:23 10° N 21:51:28 51° ENE 21:53:10 36° ESE
Cosmos 1726 4.3 21:50:48 10° NW 21:52:41 15° W 21:53:59 12° WSW
Cosmos 1500 Rocket 4.3 21:49:36 10° NNW 21:53:43 45° W 21:55:23 30° SW
USA 306 3.1 21:51:01 10° WNW 21:54:44 45° SW 21:54:47 45° SW
Cosmos 1656 4.2 21:50:48 10° NNW 21:56:05 48° ENE 21:58:06 33° ESE
Cosmos 1805 2.9 21:57:38 10° N 22:01:22 88° ENE 22:01:33 81° SSE
Lacrosse 4 Rocket 2.0 21:57:49 10° NNW 22:01:44 43° NE 22:02:26 39° E
Cosmos 1733 3.9 21:59:25 10° NNW 22:02:43 39° W 22:03:12 37° WSW
H-2A R/B 4.0 22:02:15 23° E 22:02:53 24° ENE 22:06:20 10° NNE
Cosmos 1805 Rocket 4.4 22:00:07 10° NNW 22:04:17 43° W 22:05:48 31° SW
Cosmos 2026 Rocket 4.0 22:02:10 37° SSE 22:04:45 72° E 22:10:59 10° NNE
ISS -1.4 22:05:31 10° W 22:06:48 16° WSW 22:06:48 16° WSW
IRIDIUM 104 4.2 22:02:42 10° N 22:07:57 78° E 22:09:23 49° SSE
NOSS 3-3 (A) 3.6 22:08:04 37° SSW 22:10:13 70° ESE 22:16:20 10° NE
Cosmos 1627 Rocket 4.4 22:07:49 38° S 22:10:26 78° E 22:16:44 10° N
Cosmos 1633 Rocket 3.1 22:06:38 10° N 22:11:01 59° E 22:11:28 55° ESE
USA 59 Rocket 0.2 22:07:44 10° NW 22:11:53 89° ENE 22:13:06 53° SE
Orbus 7S? 4.4 22:05:59 10° SSW 22:13:48 34° ENE 22:15:42 10° ENE
Landsat 5 4.4 22:09:26 10° N 22:12:57 38° WNW 22:14:26 27° WSW
Cosmos 1666 Rocket 3.3 22:08:47 10° N 22:13:07 76° E 22:13:32 68° SE
NOSS 2-1 (E) 3.7 22:09:49 10° NW 22:13:59 88° SW 22:15:08 54° SSE
Cosmos 1340 3.7 22:12:14 10° NNW 22:15:16 30° W 22:15:25 30° W
Chandra Rocket (1) 4.4 22:00:15 10° WSW 22:17:05 33° SSW 22:18:40 31° S
IRIDIUM 114 4.2 22:11:50 10° N 22:17:05 86° W 22:18:30 50° S
Cosmos 220 Rocket 4.4 22:18:08 38° SW 22:19:34 59° WNW 22:23:50 10° NNE
CZ-2C R/B 3.5 22:18:47 10° NNE 22:23:16 75° ESE 22:23:38 70° SSE
Cosmos 1818 3.5 22:21:17 31° SW 22:23:59 85° NW 22:29:30 10° NNE
IRIDIUM 103 4.4 22:21:01 10° N 22:26:14 72° W 22:27:37 48° SSW
NOSS 2-1 (D) 3.8 22:22:29 10° NW 22:26:36 65° SW 22:27:17 58° SSW
ALOS 2 4.1 22:26:21 23° E 22:26:57 24° ENE 22:30:29 10° NNE
USA 281 3.7 22:30:22 34° SSW 22:32:50 49° WSW 22:39:12 10° NW
Cosmos 1697 Rocket 3.5 22:28:19 10° NNW 22:33:37 40° ENE 22:35:28 31° E
Meteor 2-4 Rocket 4.2 22:33:18 32° SW 22:35:58 61° WNW 22:41:52 10° N
Cosmos 1674 3.9 22:37:26 31° NE 22:37:26 31° NE 22:39:37 10° NNE
Cosmos 1607 4.2 22:37:14 48° SE 22:38:12 52° ESE 22:44:29 10° NE
Cosmos 1553 Rocket 4.0 22:32:21 10° N 22:38:24 66° E 22:39:56 49° SE
Terra 4.3 22:39:03 10° WSW 22:40:46 12° W 22:42:29 10° WNW
NOSS 3-3 (C) 3.8 22:38:08 30° SW 22:40:55 77° NW 22:47:13 10° NE
Cosmos 1980 Rocket 3.9 22:37:05 10° N 22:41:44 25° NE 22:44:38 17° E
Cosmos 1066 Rocket 4.2 22:41:55 53° S 22:43:25 89° ESE 22:49:20 10° N
Cosmos 2285 Rocket 4.3 22:44:28 43° ESE 22:45:18 45° ESE 22:51:17 10° NNE
Cosmos 407 Rocket 4.3 22:49:43 37° E 22:49:43 37° E 22:54:18 10° NE
ARIANE 5 R/B 2.7 22:50:12 64° WSW 22:50:14 64° W 22:54:32 10° NNW
Lacrosse 5 rocket 4.2 22:49:24 10° NNW 22:51:56 15° NNE 22:54:26 10° NE
Cosmos 1626 3.7 22:57:25 25° WNW 22:57:25 25° WNW 22:59:44 10° NNW
Cosmos 2251 Rocket 4.1 23:01:47 42° E 23:01:47 42° E 23:06:33 10° NNE
CZ-3 Stage 3 4.1 22:39:56 10° WSW 23:02:22 38° S 23:03:03 38° S
Meteor 1-13 Rocket 4.5 23:04:59 51° SE 23:05:48 56° E 23:11:32 10° NNE
SL-8 R/B 4.4 23:02:50 10° WNW 23:07:29 51° NNE 23:10:29 21° E
Cosmos 1707 3.6 23:09:21 44° NNE 23:09:21 44° NNE 23:11:57 10° N
BREEZE-M DEB (TANK) 4.5 23:08:57 10° NW 23:14:08 15° E 23:15:26 10° E
Cosmos 2266 Rocket 3.9 23:12:28 57° SSE 23:13:36 69° E 23:19:49 10° NNE
Spot 4 3.7 23:13:59 79° WSW 23:14:04 80° WSW 23:18:52 10° NNW
Cosmos 1842 4.0 23:15:46 47° NNW 23:15:46 47° NNW 23:18:38 10° N
Cosmos 1655 Rocket 4.3 23:15:56 46° SE 23:17:06 51° E 23:23:14 10° NNE
Celestis-02/Orion 38 4.5 23:16:42 67° SE 23:17:23 81° ENE 23:22:40 10° NNW
Cosmos 1833 Rocket 2.9 23:17:04 45° WSW 23:18:38 65° WNW 23:24:14 10° NNE
Cosmos 2082 Rocket 2.8 23:23:06 41° ESE 23:23:06 41° ESE 23:28:24 10° NE
Cosmos 2360 4.3 23:18:57 10° NNW 23:24:33 58° WSW 23:25:03 56° SW
ATLAS CENTAUR R/B 4.4 23:12:02 10° NW 23:26:14 86° SW 23:31:47 34° SE
Cosmos 1515 Rocket 4.5 23:28:43 39° W 23:28:50 39° WNW 23:32:54 10° N
CZ-2C R/B 4.3 23:27:24 31° ESE 23:29:01 39° ENE 23:42:41 10° N
Cosmos 2228 Rocket 4.1 23:31:44 36° ENE 23:31:44 36° ENE 23:35:26 10° NNE
Cosmos 1300 4.5 23:28:38 10° NNE 23:30:52 23° NE 23:30:52 23° NE
Meteor 1-22 Rocket 4.2 23:27:57 10° N 23:33:16 65° ENE 23:33:54 59° ESE
SL-08 ROCKET BODY 4.4 23:33:08 61° S 23:34:19 88° E 23:40:32 10° N
Meteor 1-15 Rocket 4.2 23:31:53 10° N 23:37:32 72° E 23:38:16 63° SE
H-2A R/B 3.9 23:38:15 29° W 23:38:15 29° W 23:41:26 10° NW
H-2A R/B 2.6 23:34:34 10° NNE 23:38:23 52° ENE 23:38:23 52° ENE
Lacrosse 4 Rocket 3.6 23:36:53 10° WNW 23:38:21 16° W 23:38:21 16° W
Cosmos 1733 Rocket 4.1 23:36:02 10° N 23:39:58 35° ENE 23:39:58 35° ENE
Cosmos 1869 Rocket 3.7 23:38:36 10° N 23:42:30 68° NW 23:42:30 68° NW
Cosmos 1470 4.3 23:41:39 10° NNW 23:43:59 28° WNW 23:43:59 28° WNW
Cosmos 1400 Rocket 3.5 23:54:09 51° NE 23:54:09 51° NE 23:57:15 10° NNE
